Theta_e
328 330 328 326 325 325 324 324 323 323 323 323 322 322 322 321 321 321 321 322 322 323 323 323 322 321 320 320 320 319 319 319 317 315 317 319 321 327 332 336 337 339 341
329 331 327 326 325 324 323 323 323 322 322 322 321 321 320 320 320 320 320 321 322 322 322 321 320 319 318 317 317 317 317 316 315 312 314 316 319 329 334 333 334 333 336
329 328 326 324 324 323 323 322 322 322 322 322 320 320 319 319 319 319 319 319 319 320 320 320 318 317 317 315 315 315 315 315 313 310 311 314 321 328 331 329 329 330 331
329 327 325 323 323 322 321 321 321 321 320 320 319 319 319 318 318 318 318 317 317 317 318 317 316 316 314 313 313 314 314 313 312 307 308 312 318 324 325 326 326 326 327
326 324 324 323 322 321 320 319 319 318 318 317 317 318 317 317 317 317 315 315 315 316 316 315 315 313 312 311 311 311 311 311 310 307 306 310 315 320 322 322 322 322 324
323 323 322 322 322 320 319 318 317 317 315 315 315 316 316 316 315 314 313 313 314 313 313 313 312 310 309 309 309 310 309 309 309 304 305 307 311 317 318 319 318 318 320
321 322 322 321 322 319 318 317 316 314 312 313 313 313 314 314 312 313 312 311 311 311 311 311 309 308 307 306 307 307 307 307 305 303 304 305 309 314 316 317 317 316 317
321 322 322 321 321 318 316 315 314 312 311 311 310 311 311 310 310 309 310 310 309 309 308 307 306 305 305 304 304 305 305 305 303 303 304 305 310 313 315 316 316 315 315
322 322 322 322 321 317 314 312 311 311 310 309 308 308 307 306 307 307 307 308 307 306 306 305 304 302 302 301 302 303 303 303 302 303 303 305 310 313 314 315 314 314 314
321 321 320 321 320 319 315 311 309 308 308 307 306 305 302 303 303 305 304 305 304 303 303 303 302 301 300 299 299 301 302 302 302 302 303 306 309 312 313 313 312 312 313
319 319 319 317 318 318 315 311 308 306 305 303 304 302 303 305 303 303 302 302 302 301 300 300 300 299 299 297 297 299 301 301 302 302 303 306 308 311 313 311 311 312 313
318 317 316 316 315 316 309 309 307 306 305 305 305 305 304 304 302 301 299 298 298 299 298 298 297 298 298 298 299 299 301 302 302 302 304 308 309 311 310 308 311 311 311
318 317 315 315 315 313 308 307 307 306 305 305 305 305 304 303 303 302 301 301 301 299 299 299 298 298 298 298 298 299 300 301 302 302 305 306 309 311 312 311 311 310 310
317 316 315 314 313 311 309 307 306 305 305 304 304 304 303 302 302 301 300 300 300 300 299 299 298 298 297 297 297 298 299 300 300 301 303 301 304 307 308 309 308 309 308
316 315 313 314 311 310 309 306 306 306 305 304 304 303 303 302 302 301 301 300 299 299 298 298 297 296 296 296 296 296 297 299 300 300 301 297 298 301 304 306 307 307 307
316 311 313 310 311 310 308 307 306 307 305 305 304 303 302 302 302 301 300 299 299 299 298 297 296 296 296 296 295 296 296 298 298 299 299 301 294 296 298 301 304 306 306
313 311 310 310 310 309 308 307 307 306 306 304 303 303 302 302 302 301 300 299 298 298 298 297 296 296 295 295 295 296 296 297 297 297 298 298 298 295 294 297 300 302 304
311 310 309 307 308 308 307 307 306 305 305 304 303 304 302 302 302 301 299 298 298 297 296 295 295 294 294 294 294 295 296 296 296 297 297 297 297 297 296 294 296 299 300
310 309 309 309 307 307 306 306 306 303 306 304 304 303 302 301 301 300 298 297 297 296 295 294 294 294 293 294 294 295 296 295 296 295 296 296 296 296 296 295 294 296 297
310 309 308 307 307 306 304 303 304 305 305 303 302 301 301 300 299 298 297 296 296 295 294 294 294 294 294 293 292 294 295 296 296 296 295 295 295 295 295 295 296 296 294
308 307 305 304 304 303 303 301 303 303 302 302 300 299 299 298 297 296 295 295 295 293 293 294 293 292 292 293 292 292 294 295 295 295 295 294 294 294 294 294 295 296 297
306 305 304 303 302 302 301 297 299 302 300 299 300 299 297 297 296 294 294 293 294 293 293 293 292 291 291 292 289 288 288 291 293 293 294 293 293 293 293 293 294 295 296
304 303 302 301 300 299 296 297 299 298 300 300 298 296 296 295 295 295 294 293 293 293 292 292 291 290 288 291 291 286 283 284 286 293 292 293 292 292 293 293 293 294 295
302 302 300 298 296 296 296 296 296 296 294 295 295 295 294 294 294 294 294 293 294 293 292 292 291 290 290 287 289 289 287 285 282 283 291 290 291 291 292 292 292 293 294
301 299 298 298 295 293 295 295 296 295 295 295 294 293 293 294 294 293 293 293 293 293 292 291 290 289 289 287 285 285 286 286 286 283 282 285 289 290 291 291 291 292 293
299 298 298 295 292 294 294 295 295 293 293 292 291 291 292 292 293 293 292 293 293 292 291 291 290 289 288 287 286 285 284 283 283 283 282 283 283 287 289 290 291 291 292
Wind_Speed
10 14 15 12 11 10 10 10 10 10 10 11 11 11 12 12 12 13 13 14 13 15 15 15 16 16 16 15 16 16 16 16 17 18 18 15 12 12 11 12 16 16 18
13 13 15 13 12 11 11 10 10 9 10 10 11 11 12 12 13 14 14 14 15 15 15 16 16 16 16 16 16 16 16 16 17 19 18 12 5 12 11 15 16 17 20
14 13 14 12 12 11 11 10 10 10 10 11 11 12 12 13 14 14 15 15 16 15 15 17 16 16 17 16 17 16 17 17 17 17 15 9 8 14 15 15 16 18 19
14 12 13 13 12 12 11 11 11 11 11 12 11 12 13 14 14 14 15 15 15 15 15 16 16 17 17 17 16 17 18 18 18 16 8 8 9 13 15 14 14 16 19
14 12 15 14 14 14 12 12 12 12 12 12 12 13 14 14 14 15 14 15 15 15 16 16 17 17 17 16 16 16 17 18 19 15 10 8 10 13 14 14 14 15 16
14 15 15 15 15 14 13 13 13 13 13 12 13 14 14 14 15 14 14 14 14 15 16 16 16 17 17 16 16 17 17 18 20 11 10 8 8 15 14 12 12 13 15
14 15 15 15 16 14 13 13 13 13 13 13 14 14 14 15 14 14 13 14 14 15 15 15 16 16 16 16 17 17 17 16 14 10 9 9 7 14 14 14 12 13 14
15 14 15 15 15 14 13 13 13 13 13 14 14 14 14 13 13 13 13 14 14 14 15 15 16 16 16 16 16 17 17 17 14 9 9 8 13 15 15 13 13 13 14
14 13 12 13 14 14 12 13 13 13 14 14 13 13 13 12 12 12 12 13 14 14 15 16 16 16 16 14 14 15 16 16 13 8 8 6 16 15 13 14 11 12 13
13 13 12 12 11 11 11 13 14 14 14 14 13 12 9 9 9 12 12 13 13 14 15 15 15 15 15 12 12 14 14 14 10 9 6 9 15 16 14 11 10 12 12
13 13 11 11 9 10 11 11 13 13 12 9 10 7 4 7 8 9 12 12 12 13 13 13 14 14 15 8 7 11 14 6 8 6 5 15 15 15 14 10 10 12 13
15 14 11 10 10 9 7 7 7 7 8 7 7 7 6 7 7 6 6 7 6 11 8 11 10 11 11 9 7 8 6 8 6 6 4 14 12 12 10 9 12 11 13
15 11 12 10 9 8 7 5 4 4 4 5 7 7 6 5 5 5 5 5 6 8 7 9 9 8 11 9 8 8 8 8 5 5 9 13 15 17 16 14 13 13 15
16 13 12 11 9 7 6 4 5 4 4 4 6 6 5 4 5 5 5 6 6 7 9 9 7 9 9 9 9 9 8 7 6 5 3 10 14 15 16 16 16 16 15
14 12 11 11 9 7 5 5 4 4 4 4 5 6 6 5 5 5 6 6 7 8 9 9 9 9 9 9 8 9 9 8 7 5 5 7 10 13 14 14 15 17 17
13 12 11 11 8 8 6 5 4 3 4 4 4 5 5 5 6 6 6 7 8 8 9 9 9 9 8 9 9 8 8 8 7 7 6 3 3 7 11 13 14 15 17
12 13 11 10 8 7 7 5 3 3 2 3 4 5 5 6 6 7 6 7 8 8 10 9 9 9 9 8 9 8 7 7 7 6 6 6 6 3 6 10 14 15 15
13 13 11 8 8 7 6 3 3 4 2 3 4 3 6 6 7 7 6 7 9 8 8 8 9 9 9 9 9 9 7 6 6 6 6 6 6 7 7 5 13 14 14
13 12 10 8 8 7 5 4 3 3 0 3 3 4 6 6 7 8 6 8 10 7 7 8 9 9 10 9 10 9 8 6 6 5 7 8 8 8 8 9 10 13 9
12 10 10 7 7 6 5 3 2 2 2 3 4 5 6 6 7 8 7 8 9 7 7 8 10 9 9 9 11 10 10 6 6 6 7 6 7 8 9 9 9 7 4
11 11 10 9 8 4 4 2 1 2 2 3 5 6 6 7 8 8 8 8 8 8 9 10 10 11 9 10 10 10 9 5 5 4 6 6 7 8 9 8 7 6 6
11 11 10 8 6 5 4 5 3 2 3 5 4 4 7 7 8 8 8 8 8 8 9 10 10 10 9 9 9 11 7 8 4 8 4 5 7 7 8 8 8 8 8
12 10 10 10 9 10 7 1 2 4 3 2 3 5 5 8 7 8 8 8 8 8 8 10 10 13 10 10 9 4 7 7 13 2 7 4 7 7 7 8 8 8 8
12 11 12 11 11 10 8 3 5 6 6 5 5 5 6 6 7 8 8 8 8 8 9 9 9 10 10 10 8 6 7 7 6 9 5 10 8 10 7 7 8 7 8
12 12 11 12 11 7 6 5 5 6 3 3 5 6 6 6 6 7 8 8 9 8 9 10 11 11 9 7 6 7 8 7 8 7 12 10 10 9 9 8 7 8 8
12 11 10 11 7 7 6 7 7 6 6 7 7 6 6 5 5 6 8 8 9 10 10 10 11 11 10 8 7 7 7 5 7 7 10 12 12 11 10 9 7 6 7
Wind_Direction
132 122 112 110 105 101 96 89 83 82 79 74 69 66 60 52 48 43 39 34 30 30 27 26 22 19 14 9 6 4 360 359 356 347 343 334 339 342 336 9 4 12 11
134 116 110 112 111 106 100 94 91 91 85 75 67 64 61 51 48 42 37 31 30 26 24 24 19 18 13 8 4 2 359 357 358 346 338 314 6 1 8 24 17 13 10
121 121 122 117 113 107 100 98 95 88 82 73 64 61 57 48 44 37 37 28 27 25 21 22 16 13 11 5 3 358 357 355 357 342 320 346 358 7 19 20 18 14 7
134 126 123 120 117 108 99 95 89 80 73 66 63 59 55 48 44 37 33 29 26 24 19 19 15 12 9 4 0 359 356 352 351 330 337 346 328 32 4 12 13 10 4
129 123 117 126 121 107 101 92 85 78 74 66 62 58 55 50 44 38 33 29 25 23 18 16 13 11 5 1 357 358 354 349 343 309 353 345 322 36 348 1 1 358 359
132 118 127 131 123 107 100 92 86 80 71 67 63 57 54 50 42 36 36 29 25 24 17 15 12 7 4 357 354 351 349 349 322 338 334 343 319 358 340 346 359 355 355
128 123 131 133 124 106 98 92 84 77 70 67 62 61 57 52 43 37 36 32 27 23 17 15 11 4 1 355 350 345 343 342 331 329 334 326 360 338 337 334 347 351 353
132 128 135 135 125 106 98 92 86 78 73 70 66 65 59 51 48 35 37 35 28 22 19 14 7 3 359 353 349 344 339 337 317 330 333 328 23 335 329 331 332 344 345
138 134 137 136 129 111 99 92 85 81 76 74 70 67 62 53 47 43 38 34 25 21 17 12 7 1 356 351 350 345 337 328 306 334 322 329 2 331 329 317 340 344 343
145 143 143 140 143 136 116 97 87 81 80 74 72 68 63 72 46 46 21 34 26 19 16 9 3 357 352 347 346 345 329 286 333 325 329 25 337 328 326 321 339 338 337
155 154 150 148 148 135 124 110 106 92 88 86 87 63 70 46 32 40 44 26 24 13 10 3 359 351 342 339 342 339 300 349 327 328 321 8 330 329 325 338 341 338 344
164 161 155 153 150 141 118 121 106 87 66 62 55 45 50 38 39 15 53 29 23 360 356 349 357 337 346 345 346 328 345 339 316 320 11 347 336 336 330 343 341 339 337
163 160 158 151 158 153 140 140 123 95 93 85 59 30 51 25 22 26 10 9 358 8 1 350 353 359 350 344 343 335 332 319 332 321 53 0 350 349 352 353 350 341 343
166 162 160 155 152 147 143 132 116 108 98 75 61 32 26 25 22 12 9 5 3 359 354 351 349 343 342 340 337 329 324 317 330 310 52 15 356 353 352 342 338 340 338
166 156 163 148 152 146 147 117 105 117 73 78 65 51 18 14 13 9 8 3 358 352 351 345 346 339 337 338 334 328 317 310 312 308 307 64 5 359 356 347 340 337 333
156 155 147 151 146 141 115 120 111 99 120 69 57 44 36 3 3 4 1 1 357 351 344 340 345 334 334 332 330 328 312 303 302 312 315 294 55 351 352 347 344 337 333
154 142 151 140 139 133 125 135 128 103 81 61 54 47 13 4 5 348 359 355 358 341 336 339 337 334 330 328 325 312 309 292 286 293 299 320 318 249 343 336 338 335 332
140 145 145 139 136 126 110 139 116 106 75 51 25 10 1 8 4 346 353 354 352 335 341 343 339 336 331 330 329 321 310 294 288 280 292 314 324 322 313 354 327 323 326
138 141 134 130 127 119 116 104 97 121 18 47 4 352 11 13 8 344 354 348 336 338 346 342 340 336 327 331 328 316 308 297 268 279 299 304 300 305 318 313 307 302 317
133 128 119 108 111 114 103 111 144 104 63 13 17 23 360 31 4 345 347 350 337 343 344 344 334 334 320 334 326 318 311 303 293 283 306 299 300 317 307 315 312 299 297
126 122 117 112 109 132 149 138 100 21 52 29 45 15 22 12 2 354 351 350 346 346 346 342 337 336 333 345 319 331 304 250 298 289 311 296 319 309 316 313 296 312 295
124 111 111 111 92 53 51 39 357 3 51 27 16 19 14 5 1 351 353 347 354 340 344 346 344 335 334 339 331 318 323 299 154 293 309 317 324 313 311 309 313 299 296
119 114 100 84 79 61 66 49 63 185 199 357 352 7 25 356 359 357 351 346 343 340 344 341 345 336 328 322 350 323 329 347 330 99 306 295 335 307 313 309 303 291 287
104 96 83 81 78 61 33 27 349 6 4 7 348 11 339 4 352 355 345 345 342 336 342 341 337 327 326 322 340 327 300 268 293 313 330 315 325 307 323 300 305 287 284
108 97 96 81 73 67 54 14 350 19 20 2 352 342 352 358 354 357 342 334 339 339 340 335 330 326 320 324 316 304 303 303 259 269 299 323 310 324 313 309 308 286 275
103 97 90 86 83 68 52 41 32 23 5 2 357 343 353 350 340 3 337 333 332 339 334 330 325 321 324 323 314 293 281 288 300 301 295 301 307 306 313 297 281 282 286